CZ-6A DEB, 55001

Orbit data source: Space-Track

CZ-6A DEB, 55001 is space debris in SSO originally from a launch on Fri, 11 Nov 2022 UTC launched from the Taiyaun Space Center, China (TSC). Debris objects in space refer to the collection of defunct objects orbiting the Earth. Examples of debris include non-operational satellites, rocket bodies, and fragments generated from explosions, collisions, or faulty payload assembly.

Loading next visibility...
Identifier
55001, 2022-151UR
Orbit
SSO
Country
Flag of CNCN / PRC
Related business
Manufacturer
SAST
Mission
Spacecraft
Bus & Motor
Unknown
Mass
Unknown
Launch date (UTC)
2022-11-11 (4 years ago)
Launch vehicle
Unknown
Launch site
Taiyaun Space Center, China (TSC)
Object type
Payload
Rocket body
Debris
Shape & HBR
Unknown shape, 0.1 m
Radar Cross Section
Medium (>0.1 m² and <1 m²)

Expand to show TLE details & history
Last TLE update: 2 days ago

TLE from 2 days ago
0 CZ-6A DEB
1 55001U 22151UR  26171.44462073  .00000129  00000-0  96359-4 0  9997
2 55001  98.8346 171.1657 0043177 333.1209  26.7725 14.10426500184254
Epoch: 2026-06-20T10:40Z
TLE epoch observation values (Epoch: 2026-06-20T10:40:15.231Z)
Latitude
Longitude
102.44309°
Altitude
832.938 km
Speed
7.451 km/s
True Right ascension
11h 24m 39s
True Declination
0° 00' 00"
Sunlit
Object was in daylight at epoch
Visualization orbit readout
Latitude
Unknown
Longitude
Unknown
Altitude
Unknown
Speed
Unknown
Apparent Right ascension
Unknown
Apparent Declination
Unknown
Sunlit
N/A
Visualization observer readout
Local Sidereal Time
21:32:36
Azimuth
Unknown
Elevation
Unknown
Doppler factor
Unknown
Orbital elements
Apogee altitude
886.321 km
Perigee altitude
823.859 km
Semi-major axis
7,233.227 km
Eccentricity
0.00432
Inclination
98.8346°
RAAN
171.1657°
Arg. of periapsis
333.1209°
True anomaly
26.99645°
Mean anomaly
26.7725°
Eccentric anomaly
26.88437°
Mean motion
3.52813 °/min
Orbital period
102.04 mins
BSTAR
0.000096359
Loading maneuver chart data...
Computing Atmospheric mass density...
Loading historical data...
Loading historical data...
Loading historical data...
Loading historical data...
Loading historical data...
Loading historical data...
Loading historical data...

Documentation

Showing up to 5 results
|